Hurlburt Field, FL

5:17 AM CDT on August 26, 2016 (GMT -0500)
Hurlburt

Weather History for KHRT - January, 2012

Change the Weather History Date:

Sunday, January 1, 2012

  Actual Average Record
Temperature  
Mean Temperature 62 °F -  
Max Temperature 73 °F 59 °F 73 °F (2012)
Min Temperature 50 °F 41 °F 30 °F (2001)
Degree Days  
Heating Degree Days 4    
Growing Degree Days 12 (Base 50)    
Moisture  
Dew Point 55 °F    
Average Humidity 89    
Maximum Humidity 100    
Minimum Humidity 40    
Precipitation  
Precipitation 0.01 in - - ()
Sea Level Pressure  
Sea Level Pressure 30.19 in    
Wind  
Wind Speed 6 mph (NW)    
Max Wind Speed 24 mph    
Max Gust Speed 31 mph    
Visibility 6 miles    
Events Fog    
Averages and records for this station are not official NWS values.
T = Trace of Precipitation, MM = Missing Value Source: NWS Daily Summary

Daily Weather History Graph

Daily Weather History Graph

Search for Another Location

Airport or City:

Trip Planner

Search our weather history database for the weather conditions in past years. The results will help you decide how hot, cold, wet, or windy it might be!

Date:

Astronomy

Jan. 01, 2012 Rise Set
Actual Time 6:43 AM CST 4:56 PM CST
Civil Twilight 6:17 AM CST 5:23 PM CST
Nautical Twilight 5:47 AM CST 5:53 PM CST
Astronomical Twilight 5:17 AM CST 6:22 PM CST
Moon 11:31 AM CST (1/1) No Moon Set
Length of Visible Light 11h 06m
Length of Day
10h 13m
First Quarter, 55% of the Moon is Illuminated
Jan 1
First Quarter
Jan 9
Full
Jan 16
Last Quarter
Jan 23
New
Jan 30
First Quarter

Hourly Weather History & Observations

Time (CST) Temp. Dew Point Humidity Pressure Visibility Wind Dir Wind Speed Gust Speed Precip Events Conditions
12:55 AM 64.0 °F 62.2 °F 94% 30.17 in 10.0 mi SW 4.6 mph - N/A   Clear
1:55 AM 64.6 °F 62.6 °F 93% 30.17 in 10.0 mi SW 6.9 mph - N/A   Clear
2:48 AM 51.8 °F 51.8 °F 100% 30.18 in 7.0 mi North 3.5 mph - N/A   Clear
2:55 AM 51.4 °F 50.5 °F 97% 30.18 in 7.0 mi North 3.5 mph - N/A   Clear
3:05 AM 51.8 °F 51.8 °F 100% 30.18 in 2.5 mi North 5.8 mph - N/A   Clear
3:08 AM 51.8 °F 50.0 °F 94% 30.18 in 1.8 mi North 5.8 mph - N/A   Clear
3:10 AM 51.8 °F 50.0 °F 94% 30.18 in 1.5 mi North 5.8 mph - N/A   Clear
3:13 AM 51.8 °F 50.0 °F 94% 30.18 in 1.8 mi North 5.8 mph - N/A   Clear
3:15 AM 51.8 °F 50.0 °F 94% 30.18 in 2.0 mi North 5.8 mph - N/A   Clear
3:18 AM 51.8 °F 50.0 °F 94% 30.18 in 1.8 mi North 5.8 mph - N/A   Clear
3:19 AM 51.8 °F 50.0 °F 94% 30.18 in 1.2 mi North 5.8 mph - N/A   Clear
3:20 AM 51.8 °F 50.0 °F 94% 30.18 in 1.0 mi North 5.8 mph - N/A   Clear
3:21 AM 51.8 °F 50.0 °F 94% 30.18 in 0.8 mi North 5.8 mph - N/A   Clear
3:23 AM 51.8 °F 50.0 °F 94% 30.18 in 0.5 mi North 5.8 mph - N/A Fog Fog
3:26 AM 51.8 °F 50.0 °F 94% 30.18 in 0.5 mi North 6.9 mph - N/A Fog Fog
3:55 AM 50.9 °F 50.7 °F 99% 30.18 in 0.5 mi North 4.6 mph - N/A Fog Fog
4:12 AM 50.0 °F 50.0 °F 100% 30.18 in 0.8 mi North 3.5 mph - N/A   Clear
4:18 AM 50.0 °F 50.0 °F 100% 30.18 in 0.8 mi NNE 3.5 mph - N/A   Clear
4:19 AM 50.0 °F 50.0 °F 100% 30.18 in 1.0 mi NNE 3.5 mph - N/A   Clear
4:23 AM 50.0 °F 50.0 °F 100% 30.18 in 1.2 mi Calm Calm - N/A   Clear
4:26 AM 50.0 °F 50.0 °F 100% 30.18 in 1.5 mi Calm Calm - N/A   Clear
4:28 AM 50.0 °F 50.0 °F 100% 30.17 in 1.8 mi Calm Calm - N/A   Clear
4:31 AM 50.0 °F 50.0 °F 100% 30.17 in 2.0 mi Calm Calm - N/A   Clear
4:35 AM 50.0 °F 50.0 °F 100% 30.17 in 3.0 mi Calm Calm - N/A   Clear
4:40 AM 50.0 °F 50.0 °F 100% 30.17 in 4.0 mi Calm Calm - N/A   Clear
4:55 AM 50.5 °F 50.4 °F 99% 30.18 in 6.0 mi North 4.6 mph - N/A   Clear
5:14 AM 50.0 °F 50.0 °F 100% 30.19 in 2.5 mi North 5.8 mph - N/A   Clear
5:16 AM 50.0 °F 50.0 °F 100% 30.19 in 1.8 mi North 5.8 mph - N/A   Clear
5:17 AM 50.0 °F 50.0 °F 100% 30.19 in 1.5 mi North 4.6 mph - N/A   Clear
5:20 AM 50.0 °F 50.0 °F 100% 30.19 in 1.2 mi North 4.6 mph - N/A   Clear
5:22 AM 50.0 °F 50.0 °F 100% 30.19 in 1.0 mi North 4.6 mph - N/A   Clear
5:27 AM 50.0 °F 50.0 °F 100% 30.19 in 0.8 mi North 4.6 mph - N/A   Clear
5:30 AM 50.0 °F 50.0 °F 100% 30.19 in 0.8 mi North 4.6 mph - N/A   Clear
5:31 AM 50.0 °F 50.0 °F 100% 30.19 in 0.5 mi North 4.6 mph - N/A Fog Fog
5:38 AM 50.0 °F 50.0 °F 100% 30.19 in 0.8 mi North 3.5 mph - N/A   Clear
5:44 AM 50.0 °F 50.0 °F 100% 30.19 in 0.8 mi North 3.5 mph - N/A   Clear
5:45 AM 50.0 °F 50.0 °F 100% 30.19 in 1.0 mi Calm Calm - N/A   Clear
5:48 AM 50.0 °F 50.0 °F 100% 30.19 in 1.0 mi Calm Calm - N/A   Clear
5:49 AM 50.0 °F 50.0 °F 100% 30.19 in 1.2 mi Calm Calm - N/A   Clear
5:50 AM 50.0 °F 50.0 °F 100% 30.19 in 1.5 mi Calm Calm - N/A   Clear
5:51 AM 50.0 °F 50.0 °F 100% 30.19 in 1.8 mi Calm Calm - N/A   Clear
5:52 AM 50.0 °F 50.0 °F 100% 30.20 in 2.0 mi Calm Calm - N/A   Clear
5:53 AM 50.0 °F 50.0 °F 100% 30.20 in 3.0 mi Calm Calm - N/A   Clear
5:55 AM 50.0 °F 49.8 °F 99% 30.20 in 4.0 mi Calm Calm - N/A   Clear
6:29 AM 50.0 °F 50.0 °F 100% 30.21 in 7.0 mi North 4.6 mph - N/A   Clear
6:55 AM 50.0 °F 49.5 °F 98% 30.22 in 7.0 mi North 3.5 mph - N/A   Clear
7:55 AM 54.1 °F 53.1 °F 96% 30.24 in 10.0 mi Calm Calm - 0.01 in   Partly Cloudy
8:55 AM 69.3 °F 65.1 °F 87% 30.25 in 10.0 mi SW 6.9 mph - N/A   Partly Cloudy
9:55 AM 70.5 °F 65.7 °F 85% 30.24 in 10.0 mi SW 8.1 mph - N/A   Partly Cloudy
10:55 AM 72.7 °F 65.7 °F 79% 30.22 in 10.0 mi WSW 11.5 mph - N/A   Scattered Clouds
11:39 AM 71.6 °F 66.2 °F 83% 30.19 in 10.0 mi WSW 11.5 mph 18.4 mph N/A   Mostly Cloudy
11:45 AM 71.6 °F 66.2 °F 83% 30.19 in 10.0 mi SW 10.4 mph 18.4 mph N/A   Mostly Cloudy
11:52 AM 71.6 °F 66.2 °F 83% 30.19 in 10.0 mi SW 12.7 mph - N/A   Mostly Cloudy
11:55 AM 72.3 °F 65.7 °F 79% 30.18 in 10.0 mi SW 11.5 mph - N/A   Mostly Cloudy
12:00 PM 73.4 °F 66.2 °F 78% 30.18 in 10.0 mi SW 12.7 mph - N/A   Mostly Cloudy
12:07 PM 71.6 °F 66.2 °F 83% 30.18 in 10.0 mi SW 10.4 mph - N/A   Mostly Cloudy
12:20 PM 73.4 °F 66.2 °F 78% 30.17 in 10.0 mi SW 13.8 mph 21.9 mph N/A   Mostly Cloudy
12:23 PM 73.4 °F 66.2 °F 78% 30.17 in 10.0 mi WSW 13.8 mph 21.9 mph N/A   Mostly Cloudy
12:55 PM 71.8 °F 66.2 °F 83% 30.16 in 10.0 mi WSW 10.4 mph - N/A   Mostly Cloudy
1:10 PM 71.6 °F 66.2 °F 83% 30.16 in 10.0 mi West 10.4 mph - N/A   Overcast
1:24 PM 69.8 °F 66.2 °F 88% 30.16 in 10.0 mi West 11.5 mph - N/A   Mostly Cloudy
1:41 PM 71.6 °F 66.2 °F 83% 30.15 in 10.0 mi WSW 15.0 mph - N/A   Mostly Cloudy
1:43 PM 71.6 °F 66.2 °F 83% 30.15 in 10.0 mi WSW 13.8 mph - N/A   Mostly Cloudy
1:45 PM 71.6 °F 66.2 °F 83% 30.15 in 10.0 mi WSW 15.0 mph - N/A   Scattered Clouds
1:50 PM 71.6 °F 66.2 °F 83% 30.15 in 10.0 mi West 16.1 mph 20.7 mph N/A   Mostly Cloudy
1:53 PM 71.6 °F 66.2 °F 83% 30.15 in 10.0 mi WSW 15.0 mph 20.7 mph N/A   Mostly Cloudy
1:54 PM 71.6 °F 66.2 °F 83% 30.15 in 10.0 mi WSW 15.0 mph 21.9 mph N/A   Mostly Cloudy
1:55 PM 72.3 °F 65.7 °F 79% 30.15 in 10.0 mi WSW 15.0 mph 21.9 mph N/A   Mostly Cloudy
1:57 PM 71.6 °F 66.2 °F 83% 30.15 in 10.0 mi West 13.8 mph 21.9 mph N/A   Mostly Cloudy
2:55 PM 69.8 °F 64.9 °F 84% 30.15 in 10.0 mi WSW 11.5 mph - N/A   Clear
3:55 PM 67.6 °F 64.4 °F 89% 30.13 in 10.0 mi WSW 10.4 mph - N/A   Clear
4:55 PM 66.2 °F 63.9 °F 92% 30.15 in 10.0 mi West 9.2 mph - N/A   Clear
5:55 PM 65.3 °F 63.0 °F 92% 30.16 in 10.0 mi West 4.6 mph - N/A   Clear
6:12 PM 66.2 °F 62.6 °F 88% 30.17 in 10.0 mi WNW 9.2 mph - N/A   Mostly Cloudy
6:55 PM 67.1 °F 59.4 °F 76% 30.20 in 10.0 mi NW 9.2 mph - N/A   Overcast
7:06 PM 66.2 °F 55.4 °F 68% 30.21 in 10.0 mi NW 11.5 mph - N/A   Mostly Cloudy
7:08 PM 66.2 °F 53.6 °F 64% 30.21 in 10.0 mi NW 10.4 mph - N/A   Mostly Cloudy
7:24 PM 66.2 °F 48.2 °F 52% 30.22 in 10.0 mi NNW 10.4 mph - N/A   Mostly Cloudy
7:55 PM 64.4 °F 39.2 °F 40% 30.24 in 10.0 mi NNW 15.0 mph 24.2 mph N/A   Mostly Cloudy
8:55 PM 60.1 °F 38.7 °F 45% 30.25 in 10.0 mi North 17.3 mph - N/A   Clear
9:55 PM 57.4 °F 36.1 °F 45% 30.26 in 10.0 mi North 24.2 mph 31.1 mph N/A   Clear
10:55 PM 54.9 °F 35.8 °F 49% 30.27 in 10.0 mi North 16.1 mph - N/A   Clear
11:55 PM 53.2 °F 35.2 °F 51% 30.26 in 10.0 mi North 19.6 mph 25.3 mph N/A   Clear